Flag Weather past 2 weeks in Rancho Cucamonga, California, U.S.A.

Now
60 °F

Passing clouds.


Feels Like: 60 °F
Forecast: 60 / 81 °F
Wind: No wind

Location: Ontario International Airport

Current Time: Oct 30, 2014 at 6:53:01 AM

Latest Report: Oct 30, 2014 at 5:53 AM


Visibility: 10 mi

Pressure: 29.96 "Hg

Humidity: 72%

Dew point: 51 °F

Location of Rancho CucamongaLocation

Historic Weather in Rancho Cucamonga — Graph

°F

Rancho Cucamonga temperature yesterday

Maximum temperature yesterday: 89 °F (at 3:53 PM)
Minimum temperature yesterday: 59 °F (at 5:53 AM)
Average temperature yesterday: 72 °F

Past Weeks' High & Low Weather Summary

 TemperatureHumidityPressure
High92 °F (Oct 24, 1:53 PM)97% (Oct 20, 8:53 AM)30.03 "Hg (Oct 20, 8:53 AM)
Low55 °F (Oct 26, 6:53 AM)11% (Oct 24, 1:53 PM)29.79 "Hg (Oct 18, 4:53 PM)
Average69 °F57%29.92 "Hg
* Reported Oct 15 5:53 AM — Oct 30 5:53 AM, Rancho Cucamonga, Weather by CustomWeather, © 2014

Note: Actual official high and low records may vary slightly from our data, if they occured in-between our weather recording intervals... More about our weather records

Advertising

Rancho Cucamonga weather history for previous 24 hours

 ConditionsComfort  
Time TempWeatherWind HumidityBarometerVisibility
5:53 AM
Oct 30
60 °FPassing clouds.No wind72%29.96 "Hg10 mi
4:53 AM60 °FPassing clouds.No wind69%29.95 "Hg10 mi
3:53 AM62 °FPassing clouds.No wind65%29.94 "Hg10 mi
2:53 AM61 °FPassing clouds.No wind70%29.95 "Hg10 mi
1:53 AM62 °FPassing clouds.3 mph65%29.96 "Hg10 mi
12:53 AM62 °FPassing clouds.3 mph60%29.96 "Hg10 mi
11:53 PM
Oct 29
65 °FPassing clouds.No wind56%29.96 "Hg10 mi
10:53 PM69 °FPassing clouds.No wind47%29.97 "Hg10 mi
9:53 PM69 °FPassing clouds.No wind49%29.97 "Hg10 mi
8:53 PM70 °FPassing clouds.No wind41%29.96 "Hg10 mi
7:53 PM75 °FPassing clouds.9 mph37%29.95 "Hg10 mi
6:53 PM79 °FPassing clouds.10 mph30%29.93 "Hg10 mi
5:53 PM82 °FPassing clouds.8 mph25%29.92 "Hg10 mi
4:53 PM87 °FSunny.9 mph17%29.91 "Hg10 mi
3:53 PM89 °FSunny.9 mph11%29.90 "Hg10 mi
2:53 PM88 °FSunny.6 mph12%29.91 "Hg10 mi
1:53 PM87 °FSunny.7 mph14%29.93 "Hg10 mi
12:53 PM85 °FSunny.5 mph17%29.96 "Hg10 mi
11:53 AM82 °FSunny.5 mph21%30.00 "Hg10 mi
10:53 AM77 °FSunny.3 mph32%30.01 "Hg10 mi
9:53 AM73 °FSunny.No wind40%30.02 "Hg10 mi
8:53 AM68 °FSunny.3 mph51%30.02 "Hg10 mi
7:53 AM59 °FClear.No wind69%30.02 "Hg10 mi
6:53 AM59 °FClear.3 mph69%30.00 "Hg10 mi
Weather by CustomWeather, © 2014

See weather overviewHow to use our weather pages